[[{"header":{"parameterUnit":"m.s-1","parameterCategory":1,"la1":30.2991,"la2":30.254,"lo1":-89.0895,"lo2":-89.0444,"dy":0.0017,"dx":0.0017,"nx":28,"ny":28,"refTime":"2024-02-23T09:00:00:Z","depth":0,"parameterNumber":2,"parameterNumberName":"U-component_of_WINDS"},"data":[0,0,0,0,0,0,0,0,0,0,0,0,0,0,0,0,0,0,0,0,0,0,0,0,0,0,0,0,0,0,0,0,0,0,0,0,0,0,0,0,0,0,0,0,0,0,0,0,0,0,0,0,0,0,0,0,0,0,3.3451,3.3452,0,3.3509,3.3509,3.351,3.3467,3.3465,3.3463,3.3461,3.3527,3.3531,3.3534,0,0,0,0,0,0,0,0,0,0,0,0,0,3.3313,3.3316,3.3451,3.3452,3.3453,3.3509,3.3509,3.351,3.3467,3.3465,3.3462,3.346,3.3526,3.353,3.3535,0,0,0,0,0,0,0,0,0,0,0,0,0,3.3372,3.3317,3.3451,3.3438,3.3437,3.3508,3.3509,3.351,3.3467,3.3465,3.3462,3.3459,3.3525,3.353,3.3535,3.3625,0,0,3.3551,3.3554,0,0,0,0,0,0,0,0,3.3369,3.3377,3.3439,3.3439,3.3438,3.3477,3.3485,3.3549,3.3468,3.3456,3.3461,3.3458,3.3514,3.352,3.3537,3.3628,3.3631,3.3552,3.3555,3.3557,3.3559,0,0,0,0,0,0,0,3.3365,3.3375,3.3474,3.344,3.3439,3.3432,3.3437,3.3497,3.35,3.3457,3.3454,3.3461,3.3513,3.3532,3.3538,3.3632,3.3552,3.3556,3.356,3.3562,3.3805,3.3808,0,0,0,0,0,0,3.3361,3.3372,3.3472,3.3476,3.3396,3.3437,3.3442,3.3468,3.35,3.3501,3.3463,3.3459,3.3524,3.3532,3.354,3.3651,3.3557,3.3562,3.3565,3.3802,3.3806,3.381,0,0,0,0,0,0,3.3358,3.337,3.347,3.3423,3.3435,3.3442,3.3471,3.347,3.3489,3.3504,3.3505,3.3481,3.3522,3.3533,3.3605,3.3652,3.3565,3.357,3.3798,3.3803,3.3808,3.387,0,0,0,0,0,0,3.3354,3.337,3.3401,3.3424,3.3438,3.3531,3.3474,3.3474,3.3498,3.3492,3.3522,3.3524,3.3521,3.3597,3.361,3.3658,3.3574,3.3794,3.38,3.3806,3.3864,3.3877,3.3888,0,0,0,0,0,3.335,3.3418,3.3403,3.3416,3.3477,3.3534,3.3542,3.3535,3.3502,3.3536,3.3546,3.3523,3.3645,3.3605,3.3619,3.3669,3.3791,3.3799,3.3806,3.3859,3.3874,3.3887,0,0,0,0,0,0,3.3402,3.342,3.3404,3.3481,3.3506,3.3526,3.3568,3.3551,3.3587,3.3581,3.3573,3.358,3.3656,3.367,3.3625,3.376,3.3713,3.3724,3.3749,3.3763,3.3775,3.3771,3.3578,0,0,0,0,0,3.3422,3.3464,3.3478,3.3545,3.3558,3.3561,3.3586,3.3578,3.3604,3.3615,3.3631,3.366,3.3705,3.3735,3.3777,3.3866,3.3874,3.3908,3.3919,3.3929,3.3939,3.3991,3.4007,3.3834,3.3834,3.3834,0,0,3.3465,3.348,3.3507,3.3556,3.3574,3.3621,3.357,3.3621,3.3657,3.3624,3.3693,3.3706,3.3738,3.382,3.3856,3.3833,3.3988,3.3938,3.3946,3.3951,3.4,3.4016,3.4031,3.3839,3.3838,3.3837,0,0,3.3567,3.3581,3.3639,3.3659,3.3687,3.3689,3.3704,3.3727,3.3734,3.3802,3.378,3.3824,3.39,3.3925,3.3948,3.4063,3.4045,3.4077,3.4139,3.419,3.4203,3.4216,3.4259,3.4275,3.4086,3.4087,3.4087,0,3.3617,3.3683,3.3672,3.3725,3.3749,3.372,3.3781,3.3802,3.3843,3.3862,3.3835,3.3933,3.3952,3.4041,3.407,3.4088,3.4107,3.4074,3.4202,3.4214,3.4225,3.4267,3.4283,3.4091,3.409,3.409,3.4089,0,3.3745,3.3792,3.3836,3.3876,3.3905,3.3962,3.3962,3.3994,3.3985,3.3991,3.4064,3.4086,3.4134,3.4154,3.4146,3.4244,3.4229,3.4202,3.4155,3.4246,3.4285,3.4301,3.4096,3.4095,3.4094,3.4093,0,0,3.388,3.3914,3.3931,3.395,3.398,3.4018,3.4076,3.412,3.4149,3.418,3.423,3.4297,3.4273,3.4299,3.4294,3.4339,3.4432,3.4307,3.4308,3.4332,3.4545,3.4566,3.4585,3.442,3.4423,3.4425,3.4543,0,3.3985,3.4083,3.4076,3.4169,3.4215,3.419,3.4241,3.4267,3.4275,3.4318,3.4328,3.4376,3.434,3.4356,3.4398,3.4412,3.4476,3.4403,3.4471,3.4473,3.4464,3.4605,3.4626,3.4737,3.4558,3.4561,3.4563,0,3.412,3.4155,3.4252,3.4279,3.4298,3.4343,3.4385,3.4425,3.4456,3.4459,3.449,3.4478,3.454,3.4491,3.4579,3.453,3.4557,3.4569,3.4573,3.458,3.4524,3.4618,3.4771,3.4788,3.4587,3.4585,3.4583,0,3.4212,3.4283,3.4351,3.4368,3.44,3.4433,3.4449,3.4476,3.4505,3.4543,3.4563,3.4608,3.4634,3.4671,3.4674,3.4637,3.4765,3.4714,3.4772,3.4772,3.48,3.4799,3.4962,3.4816,3.4815,3.4815,3.4815,0,3.4331,3.4392,3.4393,3.4435,3.4505,3.4498,3.4568,3.4581,3.4607,3.4654,3.4635,3.468,3.468,3.4728,3.4731,3.4805,3.4816,3.4823,3.4824,3.4826,3.4825,3.4845,3.4838,3.4819,3.4818,3.4818,3.4817,0,3.4445,3.4448,3.4521,3.4546,3.4554,3.4604,3.4627,3.4669,3.4676,3.4736,3.475,3.4763,3.4818,3.4824,3.4888,3.4891,3.4981,3.4973,3.497,3.4969,3.5028,3.5023,3.521,3.5236,3.5071,3.5073,3.5074,0,3.4521,3.4568,3.4598,3.4627,3.4644,3.4691,3.472,3.4717,3.4749,3.479,3.4828,3.4881,3.4923,3.5013,3.503,3.508,3.5074,3.5136,3.5081,3.5083,3.5078,3.5075,3.5082,3.5147,3.5149,3.515,3.5152,0,3.4657,3.4657,3.4698,3.4741,3.4776,3.481,3.4843,3.4868,3.487,3.4907,3.4962,3.4995,3.5061,3.5115,3.5165,3.5185,3.5171,3.5169,3.5185,3.5188,3.5186,3.5191,3.5001,3.5165,3.5163,3.5162,3.5162,3.5161,3.4756,3.4797,3.4826,3.4874,3.4897,3.4929,3.497,3.4983,3.5028,3.508,3.5077,3.5139,3.5173,3.5238,3.5261,3.5312,3.5292,3.5315,3.5321,3.5328,3.5335,3.5177,3.5321,3.5321,3.5321,3.532,3.532,0,3.4892,3.491,3.4954,3.4999,3.5039,3.5019,3.5055,3.509,3.5143,3.5175,3.5217,3.5283,3.5336,3.5358,3.5411,3.5448,3.5443,3.5462,3.546,3.5466,3.5348,3.533,3.5466,3.5465,3.5465,3.5465,3.5465,3.5465,3.4968,3.5038,3.5042,3.5126,3.5143,3.5202,3.5225,3.5255,3.5281,3.5354,3.5397,3.5411,3.544,3.5496,3.5545,3.5551,3.5572,3.5595,3.5598,3.5488,3.5474,3.546,3.5442,3.5599,3.5599,3.5711,3.5712,3.5713]},{"header":{"parameterUnit":"m.s-1","parameterCategory":1,"la1":30.2991,"la2":30.254,"lo1":-89.0895,"lo2":-89.0444,"dy":0.0017,"dx":0.0017,"nx":28,"ny":28,"refTime":"2024-02-23T09:00:00:Z","depth":0,"parameterNumber":3,"parameterNumberName":"V-component_of_WINDS"},"data":[0,0,0,0,0,0,0,0,0,0,0,0,0,0,0,0,0,0,0,0,0,0,0,0,0,0,0,0,0,0,0,0,0,0,0,0,0,0,0,0,0,0,0,0,0,0,0,0,0,0,0,0,0,0,0,0,0,0,3.0434,3.0436,0,3.0607,3.0609,3.0611,3.0628,3.0626,3.0624,3.0622,3.0803,3.0809,3.0816,0,0,0,0,0,0,0,0,0,0,0,0,0,3.0121,3.0126,3.0434,3.0436,3.0438,3.0607,3.0609,3.0612,3.0628,3.0626,3.0624,3.0621,3.0801,3.0809,3.0816,0,0,0,0,0,0,0,0,0,0,0,0,0,3.0272,3.0128,3.0433,3.0466,3.0471,3.0606,3.0609,3.0612,3.0628,3.0626,3.0623,3.062,3.0798,3.0808,3.0817,3.0933,0,0,3.0847,3.0851,0,0,0,0,0,0,0,0,3.0263,3.0283,3.0459,3.0464,3.047,3.0593,3.0565,3.072,3.0629,3.0569,3.0622,3.0619,3.0736,3.075,3.0789,3.0941,3.0949,3.0848,3.0854,3.0858,3.0861,0,0,0,0,0,0,0,3.0253,3.0276,3.0502,3.0462,3.0468,3.0474,3.0492,3.0595,3.0666,3.0574,3.0575,3.0596,3.0738,3.0779,3.0793,3.0951,3.0848,3.0857,3.0863,3.0866,3.121,3.1213,0,0,0,0,0,0,3.0235,3.0267,3.0497,3.0508,3.0358,3.0482,3.0502,3.0556,3.0664,3.0678,3.0598,3.0596,3.0764,3.0782,3.08,3.0944,3.0858,3.0867,3.0873,3.1206,3.121,3.1214,0,0,0,0,0,0,3.0229,3.0256,3.049,3.0388,3.0418,3.049,3.055,3.0561,3.0603,3.0682,3.0696,3.0627,3.0763,3.0786,3.09,3.095,3.0872,3.0881,3.1203,3.1208,3.1212,3.1232,0,0,0,0,0,0,3.022,3.0253,3.0297,3.0389,3.0423,3.0586,3.0554,3.0567,3.0619,3.0618,3.0713,3.0727,3.0762,3.0885,3.091,3.0962,3.0888,3.1198,3.1205,3.1211,3.1227,3.1237,3.1245,0,0,0,0,0,3.0208,3.0295,3.0299,3.0326,3.0479,3.0589,3.0609,3.0647,3.0623,3.0668,3.072,3.0724,3.094,3.0897,3.0924,3.0981,3.1195,3.1203,3.121,3.1223,3.1235,3.1245,0,0,0,0,0,0,3.0208,3.0308,3.0313,3.0432,3.0502,3.0591,3.065,3.0658,3.0737,3.0733,3.0778,3.08,3.0913,3.0958,3.0907,3.1099,3.1066,3.1079,3.1066,3.1078,3.1087,3.1074,3.0896,0,0,0,0,0,3.0222,3.0301,3.0385,3.0482,3.0517,3.0577,3.0626,3.065,3.0724,3.0754,3.0814,3.0887,3.0972,3.1027,3.1109,3.1233,3.1255,3.1285,3.1294,3.1301,3.1313,3.1385,3.14,3.1238,3.1238,3.1238,0,0,3.0251,3.0315,3.0363,3.0483,3.054,3.0624,3.0602,3.069,3.0753,3.0768,3.088,3.0926,3.1011,3.1131,3.1186,3.1172,3.1363,3.1311,3.1316,3.1324,3.1394,3.1409,3.1422,3.1243,3.1242,3.1241,0,0,3.0348,3.0403,3.0491,3.0549,3.0635,3.0675,3.0696,3.0785,3.0816,3.0929,3.0943,3.1018,3.1163,3.1223,3.1273,3.1394,3.1401,3.1419,3.1467,3.1536,3.1549,3.1561,3.1607,3.1622,3.143,3.143,3.143,0,3.0374,3.0498,3.0536,3.0625,3.0678,3.0695,3.0786,3.084,3.0949,3.0987,3.0968,3.1151,3.1209,3.1345,3.1374,3.1413,3.1441,3.141,3.1544,3.1556,3.1568,3.1612,3.1629,3.1432,3.1432,3.1432,3.1431,0,3.0528,3.0614,3.0675,3.078,3.084,3.0929,3.0982,3.1039,3.1057,3.1099,3.1215,3.1285,3.1383,3.1417,3.1435,3.1556,3.1544,3.1534,3.1502,3.1584,3.1627,3.1644,3.1435,3.1434,3.1433,3.1433,0,0,3.0629,3.0754,3.0776,3.0825,3.0922,3.099,3.1081,3.1176,3.1225,3.13,3.1379,3.1501,3.1493,3.155,3.1575,3.1636,3.173,3.1619,3.1622,3.1639,3.187,3.1879,3.1898,3.1735,3.1738,3.1741,3.1864,0,3.0739,3.09,3.0937,3.1077,3.1159,3.1176,3.1256,3.1325,3.1367,3.1443,3.149,3.1577,3.1558,3.1593,3.1653,3.1706,3.1778,3.1697,3.1811,3.1815,3.1792,3.192,3.1929,3.2042,3.1881,3.1883,3.1886,0,3.0888,3.0966,3.1114,3.1202,3.1238,3.1308,3.14,3.1472,3.1551,3.1578,3.1641,3.1661,3.1759,3.172,3.1856,3.18,3.1849,3.1882,3.1887,3.1901,3.1857,3.194,3.2079,3.2096,3.1911,3.1909,3.1908,0,3.0951,3.1093,3.12,3.1241,3.1345,3.1395,3.1441,3.1518,3.1573,3.1653,3.169,3.1781,3.1831,3.1901,3.1946,3.1913,3.2079,3.2043,3.2106,3.2105,3.2142,3.214,3.2294,3.2169,3.2169,3.2169,3.2168,0,3.107,3.1161,3.123,3.1296,3.1399,3.1441,3.1542,3.1588,3.1656,3.1733,3.1753,3.1825,3.1879,3.1959,3.1994,3.2103,3.2125,3.2151,3.216,3.2151,3.2148,3.2185,3.2179,3.2173,3.2172,3.2171,3.2171,0,3.1158,3.1208,3.1327,3.1416,3.1441,3.1513,3.159,3.1656,3.1698,3.1796,3.1821,3.1888,3.1984,3.2035,3.2154,3.2178,3.2301,3.2304,3.2274,3.2279,3.234,3.2334,3.2525,3.2553,3.2407,3.2409,3.241,0,3.1233,3.1303,3.14,3.1453,3.15,3.1584,3.1641,3.1685,3.1744,3.1841,3.1896,3.1992,3.2072,3.2224,3.2284,3.2376,3.2383,3.2444,3.2398,3.2387,3.2388,3.2384,3.2393,3.2453,3.2454,3.2455,3.2456,0,3.136,3.1381,3.1462,3.1553,3.162,3.1693,3.1766,3.1808,3.1865,3.193,3.2028,3.2089,3.2211,3.2308,3.2405,3.2454,3.2466,3.247,3.249,3.2482,3.2463,3.2477,3.2299,3.2466,3.2465,3.2464,3.2464,3.2463,3.1445,3.1509,3.1588,3.1678,3.1737,3.1805,3.1872,3.1923,3.2005,3.2108,3.2129,3.2233,3.2313,3.2444,3.2496,3.2579,3.2567,3.2595,3.2603,3.261,3.2614,3.2448,3.2597,3.2596,3.2596,3.2596,3.2596,0,3.1576,3.1628,3.171,3.1811,3.1883,3.1886,3.1967,3.2027,3.2118,3.219,3.2268,3.2382,3.2476,3.2544,3.264,3.2694,3.2702,3.2718,3.2716,3.2727,3.2618,3.2592,3.271,3.271,3.271,3.271,3.271,3.271,3.1653,3.1762,3.1793,3.1933,3.1984,3.2086,3.2132,3.2195,3.2254,3.238,3.2458,3.2501,3.2573,3.2674,3.2762,3.2779,3.2815,3.2831,3.285,3.2747,3.2735,3.2723,3.27,3.2838,3.2838,3.2953,3.2954,3.2955]}]]